Flag for Nigeria Weather past 2 weeks in Port Harcourt, Nigeria

Now
88 °F

Passing clouds.


Feels Like: 96 °F
Forecast: 73 / 96 °F
Wind: 6 mph from West

Location: Malabo/Fernando Poo

Current Time: Mar 2, 2015 at 1:16:38 PM

Latest Report: Mar 2, 2015 at 12:00 PM


Visibility: N/A

Pressure: 29.89 "Hg

Humidity: 62%

Dew point: 73 °F

Location of Port HarcourtLocation

Historic Weather in Port Harcourt — Graph

°F

Port Harcourt temperature yesterday

Maximum temperature yesterday: 90 °F (at 1:00 PM)
Minimum temperature yesterday: 79 °F (at 12:00 AM)
Average temperature yesterday: 84 °F

Past Weeks' High & Low Weather Summary

 TemperatureHumidityPressure
High90 °F (Feb 16, 3:00 PM)100% (Feb 18, 11:00 PM)29.95 "Hg (Feb 18, 11:00 PM)
Low72 °F (Feb 19, 4:00 AM)59% (Feb 19, 10:00 AM)29.74 "Hg (Feb 17, 6:00 PM)
Average82 °F82%29.84 "Hg
* Reported Feb 15 11:00 AM — Mar 2 11:00 AM, Port Harcourt, Weather by CustomWeather, © 2015

Note: Actual official high and low records may vary slightly from our data, if they occured in-between our weather recording intervals... More about our weather records

Advertising

Port Harcourt weather history for previous 24 hours

 ConditionsComfort  
Time TempWeatherWind HumidityBarometerVisibility
11:00 AM
Mon, Mar 2
86 °FPassing clouds.7 mph66%29.89 "HgN/A
10:00 AM86 °FPassing clouds.9 mph66%29.89 "HgN/A
9:00 AM81 °FPassing clouds.5 mph84%29.86 "HgN/A
8:00 AM79 °FPassing clouds.No wind89%29.86 "HgN/A
7:00 AM77 °FPassing clouds.2 mph94%29.83 "HgN/A
6:00 AM77 °FPassing clouds.No wind94%29.80 "HgN/A
5:00 AM77 °FPassing clouds.No wind94%29.80 "HgN/A
4:00 AM77 °FPassing clouds.No wind94%29.80 "HgN/A
3:00 AM77 °FPassing clouds.No wind94%29.83 "HgN/A
2:00 AM77 °FPassing clouds.N/A94%29.86 "HgN/A
12:00 AM79 °FPassing clouds.7 mph89%29.86 "Hg5 mi
10:00 PM
Sun, Mar 1
82 °FPassing clouds.7 mph84%29.83 "HgN/A
9:00 PM82 °FPassing clouds.6 mph84%29.83 "HgN/A
8:00 PM84 °FPassing clouds.6 mph79%29.80 "HgN/A
7:00 PM84 °FPassing clouds.6 mph79%29.77 "HgN/A
6:00 PM86 °FPassing clouds.7 mph75%29.77 "HgN/A
5:00 PM88 °FPassing clouds.7 mph70%29.74 "HgN/A
4:00 PM88 °FPassing clouds.7 mph66%29.77 "HgN/A
3:00 PM88 °FPassing clouds.9 mph66%29.80 "HgN/A
2:00 PM90 °FPassing clouds.No wind67%29.83 "HgN/A
1:00 PM90 °FPassing clouds.2 mph67%29.86 "HgN/A
Weather by CustomWeather, © 2015

See weather overviewHow to use our weather pages